Powrót do katalogu

STARLINK-30336

AktywnyŁącznośćVLEO
NORAD 57703·PAYLOAD·🇺🇸 United States

Wystrzelony Aug 27, 2023 z Cape Canaveral Space Force Station

Loading…

Następne Przeloty (najbliższe 24 godziny)

TLE

ŚwieżeSource: CelesTrak SupGP

Epoka: Sep 14, 2026, 20:46 UTC

1 57703C 23129F   26257.86576389 -.00015929  00000+0 -57714-3 0  2574
2 57703  42.9993 129.5395 0001355 267.7299 128.8627 15.27575375    12

Śledź STARLINK-30336 w czasie rzeczywistym z AllMySat

Download on the App Store